Location: University of Redlands
(34.0627°N, 117.1632°W)
Time: 01:10:13
(UTC-08:00)

ISS - Visible Passes

Search period start: 22 November 2017 00:00
Search period end: 02 December 2017 00:00
Orbit: 402 x 407 km, 51.6° (Epoch: 22 November)

Date Brightness Start Highest point End Pass type
(mag) Time Alt. Az. Time Alt. Az. Time Alt. Az.
23 Nov -1.6 18:03:58 10° SSE 18:05:02 14° SSE 18:05:02 14° SSE visible
24 Nov -1.5 18:46:41 10° SW 18:48:05 23° SW 18:48:05 23° SW visible
25 Nov -3.4 17:54:33 10° SSW 17:57:41 45° SE 17:58:19 38° E visible
26 Nov -2.1 17:02:58 10° S 17:05:29 21° SE 17:08:00 10° ENE visible
26 Nov -1.8 18:38:55 10° W 18:41:09 26° WNW 18:41:09 26° WNW visible
27 Nov -3.4 17:46:10 10° WSW 17:49:24 58° NW 17:51:12 23° NNE visible
28 Nov -1.2 18:31:55 10° WNW 18:33:48 14° NNW 18:33:50 14° NNW visible
29 Nov -1.9 17:38:31 10° W 17:41:14 24° NW 17:43:43 11° NNE visible
01 Dec -1.2 17:31:45 10° NW 17:33:11 12° NNW 17:34:37 10° N visible
